M I D A S
Marine Information and Data Acquisition System
Tripno 368 of the Zeeleeuw from 2002-12-12 07:33:05 to 2002-12-12 14:35:26
Back to CruiseResearch ActivitiesStationsMapUnderway DataData graphs

EquipmentUnitsComments
TimeDGPSUTC
LatitudeDGPSDM.mWGS84
LongitudeDGPSDM.mWGS84
SpeedMeteo Stationm/sRelative wind speed
DirectionMeteo StationdegRelative wind direction
TemperatureMeteo Stationdeg CelciusAir temperature
PressureMeteo StationPaAtmospheric pressure
HumidityMeteo Station%Relative humidity
Missing or incorrect values are displayed as -999
Metereological data collected by the RV Zeeleeuw from 2002-12-12 07:33:05 to 2002-12-12 14:35:26
                                                                                    Next 1000 lines
Time Latitude Longitude Speed Direction Temperature Pressure Humidity
2002-12-12 07:33:13 51°13.529 2°56.222 4.8 219 -1.2 101760 73
2002-12-12 07:33:17 51°13.529 2°56.227 4.8 221 -1.2 101760 73
2002-12-12 07:33:22 51°13.529 2°56.233 5.3 213 -1.2 101760 73
2002-12-12 07:33:29 51°13.529 2°56.242 5.5 220 -1.1 101760 73
2002-12-12 07:33:33 51°13.529 2°56.247 5.3 211 -1.1 101760 73
2002-12-12 07:33:38 51°13.53 2°56.253 5.6 209 -1.2 101760 73
2002-12-12 07:33:43 51°13.531 2°56.258 4.9 205 -1.2 101760 73
2002-12-12 07:33:48 51°13.532 2°56.263 4.5 205 -1.1 101760 73
2002-12-12 07:33:53 51°13.533 2°56.268 4.8 199 -1.1 101760 73
2002-12-12 07:33:57 51°13.534 2°56.271 4.5 205 -1.1 101760 73
2002-12-12 07:34:03 51°13.535 2°56.275 4 183 -1.1 101760 73
2002-12-12 07:34:08 51°13.536 2°56.278 3.3 187 -1.1 101760 73
2002-12-12 07:34:12 51°13.537 2°56.281 3.1 179 -1.1 101760 73
2002-12-12 07:34:18 51°13.538 2°56.284 3.1 185 -1.1 101760 73
2002-12-12 07:34:23 51°13.539 2°56.286 3.6 173 -1.1 101760 73
2002-12-12 07:34:28 51°13.541 2°56.288 3.5 178 -1.1 101760 73
2002-12-12 07:34:33 51°13.542 2°56.289 3.6 175 -1.1 101760 73
2002-12-12 07:34:38 51°13.543 2°56.291 3.1 183 -1.1 101760 73
2002-12-12 07:34:43 51°13.544 2°56.292 4.3 173 -1.1 101760 73
2002-12-12 07:34:48 51°13.544 2°56.292 4.2 168 -1.2 101760 73
2002-12-12 07:34:53 51°13.544 2°56.292 3.2 158 -1.2 101760 73
2002-12-12 07:34:58 51°13.544 2°56.292 3.6 163 -1.1 101760 74
2002-12-12 07:35:03 51°13.544 2°56.291 3.5 149 -1.1 101760 74
2002-12-12 07:35:08 51°13.544 2°56.29 3.5 114 -1.1 101760 74
2002-12-12 07:35:13 51°13.543 2°56.289 3 147 -1.1 101760 74
2002-12-12 07:35:17 51°13.543 2°56.288 3.1 154 -1.1 101760 74
2002-12-12 07:35:23 51°13.542 2°56.286 3.8 145 -1.1 101760 74
2002-12-12 07:35:28 51°13.54 2°56.285 3 130 -1.1 101760 74
2002-12-12 07:35:34 51°13.539 2°56.283 3.2 121 -1.1 101760 74
2002-12-12 07:35:39 51°13.537 2°56.281 4.3 115 -1.1 101760 74
2002-12-12 07:35:44 51°13.535 2°56.279 3.6 150 -1.1 101760 74
2002-12-12 07:35:49 51°13.533 2°56.277 3.9 121 -1.1 101770 74
2002-12-12 07:35:52 51°13.532 2°56.276 3.5 132 -1.1 101770 74
2002-12-12 07:35:59 51°13.53 2°56.273 3.7 138 -1.1 101760 73
2002-12-12 07:36:04 51°13.528 2°56.271 4.3 129 -1.1 101760 73
2002-12-12 07:36:09 51°13.527 2°56.269 4.8 130 -1.1 101760 73
2002-12-12 07:36:14 51°13.525 2°56.268 4.2 132 -1.1 101760 73
2002-12-12 07:36:18 51°13.524 2°56.267 4.1 134 -1.1 101760 74
2002-12-12 07:36:24 51°13.524 2°56.265 3.9 129 -1.1 101760 74
2002-12-12 07:36:29 51°13.523 2°56.264 3.9 128 -1.1 101770 73
2002-12-12 07:36:33 51°13.523 2°56.264 3.2 132 -1.1 101770 73
2002-12-12 07:36:38 51°13.523 2°56.263 4.1 131 -1.1 101770 73
2002-12-12 07:36:43 51°13.523 2°56.262 3.7 128 -1.1 101770 73
2002-12-12 07:36:48 51°13.523 2°56.262 3.7 126 -1.1 101770 73
2002-12-12 07:36:53 51°13.524 2°56.261 3.4 116 -1.1 101770 73
2002-12-12 07:36:58 51°13.526 2°56.261 3.7 114 -1.1 101760 74
2002-12-12 07:37:02 51°13.526 2°56.261 3.6 107 -1.1 101760 74
2002-12-12 07:37:08 51°13.527 2°56.261 2.8 105 -1.1 101770 74
2002-12-12 07:37:13 51°13.528 2°56.261 3.2 105 -1.1 101770 74
2002-12-12 07:37:17 51°13.528 2°56.261 3.4 118 -1.1 101760 74
2002-12-12 07:37:21 51°13.528 2°56.261 3.8 95 -1.1 101760 74
2002-12-12 07:37:28 51°13.528 2°56.26 3.5 102 -1.1 101770 74
2002-12-12 07:37:32 51°13.527 2°56.26 3.6 89 -1.1 101770 74
2002-12-12 07:37:38 51°13.526 2°56.26 4.2 88 -1.1 101770 74
2002-12-12 07:37:43 51°13.524 2°56.26 4.7 115 -1.1 101770 74
2002-12-12 07:37:48 51°13.523 2°56.26 3.5 87 -1.1 101770 74
2002-12-12 07:37:54 51°13.521 2°56.26 3.7 104 -1.1 101770 74
2002-12-12 07:37:59 51°13.519 2°56.26 3.9 106 -1.1 101770 74
2002-12-12 07:38:05 51°13.517 2°56.261 3.8 82 -1.1 101770 74
2002-12-12 07:38:08 51°13.516 2°56.261 3.2 103 -1.1 101770 74
2002-12-12 07:38:14 51°13.514 2°56.261 3.5 103 -1.1 101770 74
2002-12-12 07:38:18 51°13.513 2°56.261 3.3 105 -1.1 101770 74
2002-12-12 07:38:24 51°13.512 2°56.26 3.4 107 -1.1 101770 74
2002-12-12 07:38:29 51°13.512 2°56.26 3.2 98 -1.1 101770 74
2002-12-12 07:38:33 51°13.511 2°56.26 3.5 94 -1.1 101770 74
2002-12-12 07:38:37 51°13.511 2°56.26 3.7 93 -1.1 101770 74
2002-12-12 07:38:43 51°13.51 2°56.26 4.7 98 -1.1 101770 74
2002-12-12 07:38:48 51°13.51 2°56.26 4.2 104 -1.1 101770 74
2002-12-12 07:38:53 51°13.51 2°56.26 3.7 105 -1.1 101770 74
2002-12-12 07:38:58 51°13.51 2°56.26 4.1 108 -1.1 101770 74
2002-12-12 07:39:01 51°13.511 2°56.259 3.7 99 -1.1 101770 74
2002-12-12 07:39:09 51°13.512 2°56.258 4.4 107 -1.1 101770 74
2002-12-12 07:39:13 51°13.513 2°56.258 3.8 103 -1.1 101770 74
2002-12-12 07:39:17 51°13.514 2°56.257 4.2 108 -1.1 101770 74
2002-12-12 07:39:24 51°13.516 2°56.255 3.6 93 -1.1 101770 74
2002-12-12 07:39:29 51°13.518 2°56.253 3.3 69 -1.1 101770 74
2002-12-12 07:39:34 51°13.519 2°56.252 2.7 74 -1.1 101770 74
2002-12-12 07:39:38 51°13.52 2°56.25 2.4 73 -1.1 101770 74
2002-12-12 07:39:43 51°13.522 2°56.248 3 89 -1.1 101770 74
2002-12-12 07:39:49 51°13.524 2°56.246 2 89 -1.1 101770 74
2002-12-12 07:39:53 51°13.525 2°56.244 2.3 88 -1.1 101770 74
2002-12-12 07:39:58 51°13.527 2°56.242 2.7 80 -1.1 101770 74
2002-12-12 07:40:03 51°13.528 2°56.24 1.5 71 -1.1 101770 74
2002-12-12 07:40:09 51°13.529 2°56.237 2 69 -1.1 101770 74
2002-12-12 07:40:13 51°13.53 2°56.235 2.8 77 -1.1 101770 74
2002-12-12 07:40:18 51°13.532 2°56.232 3.3 134 -1.1 101770 74
2002-12-12 07:40:23 51°13.533 2°56.229 3.9 44 -1.1 101770 74
2002-12-12 07:40:29 51°13.535 2°56.226 3.2 40 -1.1 101780 74
2002-12-12 07:40:33 51°13.536 2°56.224 3.2 43 -1.1 101780 74
2002-12-12 07:40:37 51°13.537 2°56.221 3.5 44 -1.1 101770 74
2002-12-12 07:40:43 51°13.538 2°56.217 3.3 317 -1.1 101770 74
2002-12-12 07:40:49 51°13.539 2°56.213 3.5 36 -1.1 101780 75
2002-12-12 07:40:54 51°13.541 2°56.21 3.2 37 -1.1 101780 75
2002-12-12 07:40:58 51°13.542 2°56.207 2.6 33 -1.1 101780 75
2002-12-12 07:41:03 51°13.543 2°56.204 2.9 49 -1.1 101780 75
2002-12-12 07:41:09 51°13.544 2°56.199 2.4 43 -1.1 101780 74
2002-12-12 07:41:14 51°13.545 2°56.196 2.5 38 -1.1 101780 74
2002-12-12 07:41:18 51°13.546 2°56.193 2.8 30 -1.1 101780 74
2002-12-12 07:41:24 51°13.548 2°56.188 2.3 39 -1.1 101780 74
2002-12-12 07:41:29 51°13.549 2°56.184 1.7 44 -1.1 101780 74
2002-12-12 07:41:33 51°13.55 2°56.181 1.6 27 -1.1 101780 74
2002-12-12 07:41:37 51°13.551 2°56.178 2.2 44 -1.1 101780 74
2002-12-12 07:41:44 51°13.553 2°56.172 2.1 46 -1.1 101780 74
2002-12-12 07:41:49 51°13.554 2°56.168 1.9 49 -1.1 101780 74
2002-12-12 07:41:54 51°13.555 2°56.164 1.9 48 -1.1 101780 74
2002-12-12 07:41:58 51°13.556 2°56.161 1.2 59 -1.1 101780 74
2002-12-12 07:42:04 51°13.558 2°56.156 1.7 51 -1.1 101780 74
2002-12-12 07:42:08 51°13.559 2°56.152 1.7 60 -1.1 101780 75
2002-12-12 07:42:14 51°13.561 2°56.147 2.2 70 -1.1 101780 75
2002-12-12 07:42:18 51°13.562 2°56.143 2.1 60 -1.1 101780 75
2002-12-12 07:42:22 51°13.563 2°56.139 1.5 60 -1.1 101780 75
2002-12-12 07:42:29 51°13.566 2°56.132 2.7 65 -1.1 101780 75
2002-12-12 07:42:33 51°13.567 2°56.128 1.9 44 -1.1 101780 75
2002-12-12 07:42:39 51°13.569 2°56.121 1.9 44 -1.1 101780 75
2002-12-12 07:42:43 51°13.571 2°56.116 2.5 27 -1.1 101780 75
2002-12-12 07:42:49 51°13.573 2°56.109 2.8 23 -1.1 101780 75
2002-12-12 07:42:54 51°13.575 2°56.102 1.9 17 -1.1 101780 75
2002-12-12 07:42:57 51°13.577 2°56.098 2.6 24 -1.1 101780 75
2002-12-12 07:43:04 51°13.58 2°56.089 2.3 11 -1.1 101780 75
2002-12-12 07:43:09 51°13.582 2°56.082 2.2 23 -1 101780 75
2002-12-12 07:43:13 51°13.584 2°56.076 2.1 32 -1 101780 75
2002-12-12 07:43:18 51°13.587 2°56.069 2.2 27 -1 101780 75
2002-12-12 07:43:24 51°13.59 2°56.061 2.6 9 -1 101780 75
2002-12-12 07:43:29 51°13.593 2°56.053 2.1 12 -1 101780 75
2002-12-12 07:43:34 51°13.596 2°56.045 2.3 16 -1 101780 75
2002-12-12 07:43:39 51°13.599 2°56.037 2.3 132 -1 101780 75
2002-12-12 07:43:44 51°13.602 2°56.029 1.5 40 -1 101780 75
2002-12-12 07:43:49 51°13.605 2°56.021 1.4 38 -1 101780 75
2002-12-12 07:43:54 51°13.608 2°56.013 1.6 33 -1 101780 75
2002-12-12 07:43:58 51°13.611 2°56.006 2.3 35 -1 101780 75
2002-12-12 07:44:03 51°13.614 2°55.997 1.9 133 -1 101780 75
2002-12-12 07:44:09 51°13.619 2°55.987 1.5 43 -1 101780 74
2002-12-12 07:44:13 51°13.621 2°55.98 1.9 40 -1 101780 74
2002-12-12 07:44:18 51°13.625 2°55.971 1.8 34 -1 101780 74
2002-12-12 07:44:21 51°13.627 2°55.965 1.1 51 -1 101780 74
2002-12-12 07:44:29 51°13.633 2°55.95 1.1 320 -1 101780 74
2002-12-12 07:44:34 51°13.637 2°55.94 0.6 53 -1 101780 74
2002-12-12 07:44:38 51°13.64 2°55.932 0.4 53 -1.1 101780 74
2002-12-12 07:44:42 51°13.643 2°55.925 1.1 18 -1.1 101780 74
2002-12-12 07:44:49 51°13.649 2°55.911 2.2 14 -1.1 101780 75
2002-12-12 07:44:53 51°13.652 2°55.902 2.1 20 -1.1 101780 75
2002-12-12 07:44:59 51°13.657 2°55.89 1.9 23 -1.1 101780 75
2002-12-12 07:45:02 51°13.659 2°55.884 1.4 11 -1.1 101780 75
2002-12-12 07:45:09 51°13.665 2°55.869 2 25 -1.1 101790 75
2002-12-12 07:45:14 51°13.669 2°55.859 2 24 -1.1 101790 75
2002-12-12 07:45:18 51°13.673 2°55.851 1.8 23 -1.1 101780 75
2002-12-12 07:45:24 51°13.678 2°55.838 1.7 44 -1.1 101780 75
2002-12-12 07:45:29 51°13.683 2°55.828 1.8 25 -1.1 101780 74
2002-12-12 07:45:34 51°13.687 2°55.819 1.1 28 -1.1 101780 74
2002-12-12 07:45:38 51°13.691 2°55.811 1.4 28 -1.1 101780 74
2002-12-12 07:45:44 51°13.697 2°55.799 1.1 317 -1.1 101780 74
2002-12-12 07:45:49 51°13.702 2°55.789 1.2 38 -1.1 101780 74
2002-12-12 07:45:54 51°13.707 2°55.779 1.1 37 -1.1 101780 74
2002-12-12 07:45:59 51°13.712 2°55.769 0.8 32 -1.1 101780 74
2002-12-12 07:46:03 51°13.717 2°55.76 0.7 33 -1.1 101780 74
2002-12-12 07:46:09 51°13.723 2°55.748 1.2 49 -1.1 101780 74
2002-12-12 07:46:14 51°13.729 2°55.738 1.6 109 -1.1 101780 74
2002-12-12 07:46:17 51°13.732 2°55.732 1.2 112 -1.1 101780 74
2002-12-12 07:46:24 51°13.74 2°55.719 0.9 98 -1.1 101780 74
2002-12-12 07:46:29 51°13.747 2°55.709 1.2 150 -1.1 101780 75
2002-12-12 07:46:33 51°13.752 2°55.703 1.5 131 -1.1 101780 75
2002-12-12 07:46:37 51°13.757 2°55.696 1.5 130 -1.1 101780 75
2002-12-12 07:46:44 51°13.767 2°55.684 1.4 145 -1.1 101780 75
2002-12-12 07:46:49 51°13.774 2°55.675 1.6 162 -1.1 101780 75
2002-12-12 07:46:53 51°13.78 2°55.669 1.5 157 -1.1 101780 75
2002-12-12 07:46:59 51°13.789 2°55.66 1.5 159 -1.1 101790 75
2002-12-12 07:47:03 51°13.796 2°55.654 1.5 164 -1.1 101790 75
2002-12-12 07:47:09 51°13.806 2°55.646 1.3 179 -1.1 101780 75
2002-12-12 07:47:14 51°13.814 2°55.639 1.6 160 -1.1 101780 75
2002-12-12 07:47:18 51°13.821 2°55.634 1.4 165 -1.1 101780 75
2002-12-12 07:47:23 51°13.83 2°55.628 1.1 169 -1.1 101780 75
2002-12-12 07:47:29 51°13.84 2°55.62 1.9 174 -1.1 101780 76
2002-12-12 07:47:34 51°13.849 2°55.615 1.3 184 -1.1 101780 76
2002-12-12 07:47:39 51°13.858 2°55.609 1.3 182 -1 101780 76
2002-12-12 07:47:43 51°13.865 2°55.604 1.8 153 -1 101780 76
2002-12-12 07:47:49 51°13.876 2°55.596 1.9 145 -1 101780 76
2002-12-12 07:47:54 51°13.885 2°55.59 1.9 151 -1 101780 76
2002-12-12 07:47:58 51°13.892 2°55.586 1.8 175 -1 101780 76
2002-12-12 07:48:03 51°13.901 2°55.579 1.8 148 -1 101780 76
2002-12-12 07:48:09 51°13.912 2°55.571 1.8 139 -1 101780 75
2002-12-12 07:48:13 51°13.919 2°55.566 1.1 169 -1 101780 75
2002-12-12 07:48:19 51°13.93 2°55.558 1.5 120 -1 101790 75
2002-12-12 07:48:23 51°13.937 2°55.553 1.5 170 -1 101790 75
2002-12-12 07:48:29 51°13.947 2°55.545 2.2 164 -1 101780 75
2002-12-12 07:48:33 51°13.955 2°55.54 2 180 -1 101780 75
2002-12-12 07:48:39 51°13.965 2°55.533 2.3 175 -1 101780 75
2002-12-12 07:48:43 51°13.972 2°55.528 2.3 162 -1 101780 75
2002-12-12 07:48:49 51°13.983 2°55.52 2 160 -1 101780 75
2002-12-12 07:48:53 51°13.99 2°55.515 2.2 142 -1 101780 75
2002-12-12 07:48:59 51°14.001 2°55.507 1.9 126 -1 101780 75
2002-12-12 07:49:03 51°14.008 2°55.502 1.5 125 -1 101780 75
2002-12-12 07:49:09 51°14.019 2°55.495 1.7 126 -1 101780 75
2002-12-12 07:49:14 51°14.028 2°55.488 1.8 131 -1 101780 75
2002-12-12 07:49:18 51°14.035 2°55.483 1.3 139 -1 101780 75
2002-12-12 07:49:24 51°14.046 2°55.475 1.7 138 -1 101780 75
2002-12-12 07:49:28 51°14.053 2°55.47 2.1 151 -1 101780 76
2002-12-12 07:49:34 51°14.064 2°55.462 2.3 149 -1 101780 76
2002-12-12 07:49:38 51°14.071 2°55.456 2.6 130 -1 101780 76
2002-12-12 07:49:42 51°14.078 2°55.45 2.6 136 -1 101780 76
2002-12-12 07:49:49 51°14.09 2°55.44 2.1 131 -1 101780 76
2002-12-12 07:49:54 51°14.098 2°55.433 1.6 125 -1 101780 76
2002-12-12 07:49:58 51°14.105 2°55.428 1.5 131 -1 101780 75
2002-12-12 07:50:04 51°14.116 2°55.418 2.2 118 -1 101780 75
2002-12-12 07:50:09 51°14.125 2°55.411 2.2 127 -1 101780 75
2002-12-12 07:50:13 51°14.132 2°55.405 2.4 160 -1 101780 75
2002-12-12 07:50:18 51°14.141 2°55.398 2.5 154 -1.1 101780 75
2002-12-12 07:50:24 51°14.151 2°55.389 1.9 128 -1.1 101780 75
2002-12-12 07:50:29 51°14.16 2°55.381 1.9 113 -1.1 101780 75
2002-12-12 07:50:34 51°14.169 2°55.373 1.6 135 -1.1 101780 75
2002-12-12 07:50:39 51°14.177 2°55.364 1.8 135 -1 101780 76
2002-12-12 07:50:43 51°14.184 2°55.357 1.9 128 -1 101780 76
2002-12-12 07:50:49 51°14.194 2°55.346 1.5 120 -1 101780 76
2002-12-12 07:50:54 51°14.202 2°55.336 1.3 119 -1 101780 76
2002-12-12 07:50:59 51°14.21 2°55.326 1.1 120 -1 101780 76
2002-12-12 07:51:04 51°14.217 2°55.315 0.9 120 -1 101780 76
2002-12-12 07:51:09 51°14.224 2°55.304 0.7 120 -1.1 101780 75
2002-12-12 07:51:14 51°14.232 2°55.294 1 121 -1.1 101780 75
2002-12-12 07:51:18 51°14.238 2°55.285 0.9 120 -1.1 101780 75
2002-12-12 07:51:24 51°14.247 2°55.271 0.7 120 -1.1 101780 75
2002-12-12 07:51:29 51°14.253 2°55.259 0.4 120 -1 101780 75
2002-12-12 07:51:34 51°14.26 2°55.247 0.7 120 -1 101780 75
2002-12-12 07:51:39 51°14.267 2°55.234 0.4 120 -1.1 101780 75
2002-12-12 07:51:44 51°14.274 2°55.221 0.8 185 -1.1 101780 75
2002-12-12 07:51:49 51°14.282 2°55.207 0.7 181 -1.1 101780 75
2002-12-12 07:51:54 51°14.289 2°55.193 1.4 170 -1.1 101780 75
2002-12-12 07:51:58 51°14.296 2°55.181 1.4 190 -1.1 101780 75
2002-12-12 07:52:03 51°14.304 2°55.166 0.7 191 -1.1 101780 75
2002-12-12 07:52:09 51°14.313 2°55.147 0.4 190 -1.1 101790 75
2002-12-12 07:52:14 51°14.321 2°55.131 0.5 163 -1.1 101790 75
2002-12-12 07:52:18 51°14.327 2°55.117 0.7 76 -1.1 101780 75
2002-12-12 07:52:23 51°14.335 2°55.1 0.6 76 -1.1 101780 75
2002-12-12 07:52:29 51°14.344 2°55.079 0.6 75 -1.1 101780 75
2002-12-12 07:52:34 51°14.352 2°55.061 0.5 120 -1.1 101780 75
2002-12-12 07:52:38 51°14.358 2°55.047 0.4 120 -1.1 101790 76
2002-12-12 07:52:43 51°14.366 2°55.029 0.4 122 -1.1 101790 76
2002-12-12 07:52:49 51°14.375 2°55.007 0.3 122 -1.1 101790 76
2002-12-12 07:52:54 51°14.383 2°54.988 0.2 122 -1.1 101790 76
2002-12-12 07:52:59 51°14.39 2°54.969 0.3 123 -1 101790 76
2002-12-12 07:53:03 51°14.397 2°54.954 0.9 189 -1 101790 76
2002-12-12 07:53:09 51°14.406 2°54.931 0.5 202 -1 101800 76
2002-12-12 07:53:13 51°14.413 2°54.915 1.1 212 -1 101800 76
2002-12-12 07:53:18 51°14.421 2°54.894 1 212 -1 101790 76
2002-12-12 07:53:22 51°14.428 2°54.877 1.1 217 -1 101790 76
2002-12-12 07:53:29 51°14.44 2°54.846 1.3 227 -1 101790 76
2002-12-12 07:53:34 51°14.45 2°54.824 1.9 221 -1 101790 76
2002-12-12 07:53:38 51°14.457 2°54.805 1.9 221 -1 101790 75
2002-12-12 07:53:44 51°14.468 2°54.777 1.8 212 -1 101790 75
2002-12-12 07:53:49 51°14.477 2°54.753 1.6 216 -1.1 101790 75
2002-12-12 07:53:54 51°14.488 2°54.73 2.1 218 -1.1 101790 75
2002-12-12 07:53:58 51°14.496 2°54.711 2.3 221 -1 101790 75
2002-12-12 07:54:03 51°14.506 2°54.688 2.3 231 -1 101790 75
2002-12-12 07:54:09 51°14.517 2°54.658 2.1 231 -1.1 101790 75
2002-12-12 07:54:13 51°14.525 2°54.638 2.2 232 -1.1 101790 75
2002-12-12 07:54:19 51°14.535 2°54.608 2.2 228 -1.1 101790 75
2002-12-12 07:54:24 51°14.545 2°54.583 2.1 214 -1.1 101790 75
2002-12-12 07:54:29 51°14.554 2°54.558 2 205 -1.1 101800 75
2002-12-12 07:54:34 51°14.564 2°54.533 2.1 224 -1.1 101800 75
2002-12-12 07:54:39 51°14.573 2°54.508 1.9 222 -1.1 101800 75
2002-12-12 07:54:44 51°14.582 2°54.482 2.6 210 -1.1 101800 75
2002-12-12 07:54:48 51°14.589 2°54.461 2.7 231 -1.1 101790 75
2002-12-12 07:54:54 51°14.599 2°54.431 1.9 233 -1.1 101790 75
2002-12-12 07:54:58 51°14.606 2°54.41 2.5 243 -1.1 101790 75
2002-12-12 07:55:04 51°14.617 2°54.378 2.5 253 -1.1 101790 75
2002-12-12 07:55:09 51°14.625 2°54.352 2.3 248 -1.1 101790 75
2002-12-12 07:55:14 51°14.634 2°54.326 2.4 229 -1.1 101790 75
2002-12-12 07:55:19 51°14.642 2°54.3 2.2 230 -1.1 101800 75
2002-12-12 07:55:24 51°14.651 2°54.274 2.4 229 -1.1 101800 75
2002-12-12 07:55:28 51°14.657 2°54.253 2.6 232 -1.1 101800 76
2002-12-12 07:55:34 51°14.668 2°54.221 2 234 -1.1 101800 76
2002-12-12 07:55:37 51°14.673 2°54.206 2.1 235 -1.1 101800 76
2002-12-12 07:55:43 51°14.683 2°54.174 2 250 -1.1 101800 76
2002-12-12 07:55:49 51°14.694 2°54.143 2.2 221 -1.1 101800 76
2002-12-12 07:55:53 51°14.701 2°54.122 2.3 234 -1.1 101800 76
2002-12-12 07:55:58 51°14.71 2°54.096 2.1 227 -1.1 101790 76
2002-12-12 07:56:03 51°14.719 2°54.07 2.2 236 -1.1 101790 76
2002-12-12 07:56:07 51°14.726 2°54.05 2 234 -1.1 101790 76
2002-12-12 07:56:13 51°14.736 2°54.019 1.8 246 -1.1 101790 76
2002-12-12 07:56:18 51°14.745 2°53.993 1.7 237 -1.1 101800 76
2002-12-12 07:56:23 51°14.754 2°53.967 1.8 255 -1.1 101800 76
2002-12-12 07:56:29 51°14.765 2°53.935 1.7 226 -1.1 101800 75
2002-12-12 07:56:33 51°14.772 2°53.915 1.5 265 -1.1 101800 75
2002-12-12 07:56:37 51°14.778 2°53.894 1.9 240 -1.1 101800 75
2002-12-12 07:56:43 51°14.789 2°53.863 2.3 253 -1.1 101800 75
2002-12-12 07:56:49 51°14.799 2°53.83 1.9 250 -1.1 101800 76
2002-12-12 07:56:53 51°14.805 2°53.809 2.1 261 -1.1 101800 76
2002-12-12 07:56:57 51°14.812 2°53.787 1.7 256 -1.1 101800 76
2002-12-12 07:57:03 51°14.822 2°53.756 2.6 255 -1.1 101800 76
2002-12-12 07:57:09 51°14.832 2°53.723 2.1 239 -1.1 101800 76
2002-12-12 07:57:13 51°14.839 2°53.702 2.1 263 -1.1 101800 76
2002-12-12 07:57:17 51°14.845 2°53.68 1.4 244 -1.1 101800 76
2002-12-12 07:57:23 51°14.856 2°53.648 1.6 238 -1.1 101800 76
2002-12-12 07:57:29 51°14.866 2°53.616 1.5 235 -1.1 101790 76
2002-12-12 07:57:34 51°14.874 2°53.589 1.5 240 -1.1 101790 76
2002-12-12 07:57:37 51°14.88 2°53.572 1.7 233 -1.1 101790 76
2002-12-12 07:57:43 51°14.889 2°53.54 2.1 229 -1.1 101790 76
2002-12-12 07:57:49 51°14.9 2°53.508 2.1 235 -1.1 101790 76
2002-12-12 07:57:53 51°14.906 2°53.486 2.5 236 -1.1 101790 76
2002-12-12 07:57:57 51°14.913 2°53.465 2.6 258 -1.1 101780 76
2002-12-12 07:58:03 51°14.924 2°53.432 1.8 255 -1.1 101780 76
2002-12-12 07:58:09 51°14.934 2°53.399 1.8 263 -1.1 101790 76
2002-12-12 07:58:13 51°14.941 2°53.378 1.6 257 -1.1 101790 76
2002-12-12 07:58:17 51°14.948 2°53.356 1.9 241 -1 101790 77
2002-12-12 07:58:23 51°14.958 2°53.323 2.3 257 -1 101790 77
2002-12-12 07:58:27 51°14.965 2°53.301 2.5 242 -1 101780 77
2002-12-12 07:58:33 51°14.975 2°53.268 2.5 264 -1 101780 77
2002-12-12 07:58:38 51°14.983 2°53.241 2.1 260 -1 101780 76
2002-12-12 07:58:43 51°14.992 2°53.214 2.4 270 -1 101780 76
2002-12-12 07:58:49 51°15.002 2°53.181 2.2 249 -1 101790 76
2002-12-12 07:58:53 51°15.009 2°53.159 2.6 268 -1 101790 76
2002-12-12 07:58:59 51°15.019 2°53.127 2.5 239 -1 101780 77
2002-12-12 07:59:02 51°15.025 2°53.11 2.3 251 -1 101780 77
2002-12-12 07:59:09 51°15.037 2°53.072 2.2 251 -1 101780 77
2002-12-12 07:59:13 51°15.044 2°53.051 2.3 231 -1 101780 77
2002-12-12 07:59:18 51°15.052 2°53.024 2 255 -1 101780 77
2002-12-12 07:59:23 51°15.061 2°52.997 1.6 227 -1 101780 77
2002-12-12 07:59:29 51°15.072 2°52.964 1.9 229 -0.9 101780 77
2002-12-12 07:59:34 51°15.08 2°52.937 2 253 -0.9 101780 77
2002-12-12 07:59:38 51°15.087 2°52.916 1.7 288 -0.9 101790 77
2002-12-12 07:59:43 51°15.096 2°52.889 1.8 268 -0.9 101790 77
2002-12-12 07:59:49 51°15.106 2°52.856 1.8 260 -0.9 101790 78
2002-12-12 07:59:54 51°15.115 2°52.83 1.5 265 -0.9 101790 78
2002-12-12 07:59:59 51°15.124 2°52.803 1.5 265 -0.9 101780 78
2002-12-12 08:00:02 51°15.129 2°52.787 2.6 232 -0.9 101780 78
2002-12-12 08:00:09 51°15.142 2°52.749 2.6 228 -0.9 101780 78
2002-12-12 08:00:13 51°15.149 2°52.728 2.4 242 -0.9 101780 78
2002-12-12 08:00:18 51°15.158 2°52.701 2.3 249 -0.9 101780 77
2002-12-12 08:00:23 51°15.167 2°52.674 2.3 253 -0.9 101780 77
2002-12-12 08:00:29 51°15.178 2°52.643 2 245 -0.9 101790 77
2002-12-12 08:00:34 51°15.187 2°52.616 2.2 243 -0.9 101790 77
2002-12-12 08:00:38 51°15.194 2°52.595 2.1 231 -0.9 101790 77
2002-12-12 08:00:43 51°15.203 2°52.568 2.1 242 -0.9 101790 77
2002-12-12 08:00:49 51°15.213 2°52.536 2.3 244 -0.8 101790 77
2002-12-12 08:00:53 51°15.22 2°52.515 2.3 228 -0.8 101790 77
2002-12-12 08:00:59 51°15.231 2°52.483 2.6 243 -0.8 101790 77
2002-12-12 08:01:03 51°15.238 2°52.462 1.9 236 -0.8 101790 77
2002-12-12 08:01:09 51°15.248 2°52.43 1.8 231 -0.8 101780 77
2002-12-12 08:01:13 51°15.255 2°52.409 1.8 244 -0.8 101780 77
2002-12-12 08:01:19 51°15.264 2°52.376 1.7 225 -0.9 101790 77
2002-12-12 08:01:24 51°15.272 2°52.349 1.7 237 -0.9 101790 77
2002-12-12 08:01:29 51°15.279 2°52.322 1.8 226 -0.9 101790 77
2002-12-12 08:01:33 51°15.285 2°52.3 1.5 242 -0.9 101790 77
2002-12-12 08:01:38 51°15.292 2°52.272 1.5 226 -0.9 101780 77
2002-12-12 08:01:43 51°15.299 2°52.244 1.8 228 -0.9 101780 77
2002-12-12 08:01:49 51°15.305 2°52.21 1.8 256 -0.9 101780 77
2002-12-12 08:01:53 51°15.311 2°52.188 1.7 245 -0.9 101780 77
2002-12-12 08:01:58 51°15.316 2°52.159 1.8 224 -0.9 101780 77
2002-12-12 08:02:03 51°15.322 2°52.131 1.8 241 -0.9 101780 77
2002-12-12 08:02:09 51°15.328 2°52.097 1.8 256 -0.9 101790 77
2002-12-12 08:02:14 51°15.334 2°52.069 2.7 265 -0.9 101790 77
2002-12-12 08:02:17 51°15.336 2°52.052 2.9 259 -0.9 101790 77
2002-12-12 08:02:22 51°15.341 2°52.023 2.4 266 -0.9 101790 77
2002-12-12 08:02:27 51°15.347 2°51.995 3.3 269 -0.9 101780 77
2002-12-12 08:02:34 51°15.354 2°51.955 3.2 273 -0.9 101780 77
2002-12-12 08:02:38 51°15.358 2°51.932 2.7 273 -0.9 101790 77
2002-12-12 08:02:42 51°15.362 2°51.909 3 279 -0.9 101790 77
2002-12-12 08:02:49 51°15.369 2°51.87 3.2 285 -0.9 101790 77
2002-12-12 08:02:53 51°15.372 2°51.847 2.6 285 -0.9 101790 77
2002-12-12 08:02:58 51°15.378 2°51.819 2.5 286 -0.9 101780 78
2002-12-12 08:03:02 51°15.381 2°51.796 3.4 286 -0.9 101780 78
2002-12-12 08:03:09 51°15.389 2°51.757 3.7 287 -0.8 101780 78
2002-12-12 08:03:14 51°15.394 2°51.728 3.5 283 -0.8 101780 78
2002-12-12 08:03:17 51°15.397 2°51.711 3.6 283 -0.8 101790 78
2002-12-12 08:03:23 51°15.403 2°51.677 3.7 282 -0.8 101790 78
2002-12-12 08:03:29 51°15.408 2°51.643 3.4 283 -0.8 101780 78
2002-12-12 08:03:34 51°15.412 2°51.614 2.9 279 -0.8 101780 78
2002-12-12 08:03:38 51°15.415 2°51.591 3 282 -0.8 101780 78
2002-12-12 08:03:42 51°15.419 2°51.569 3.5 284 -0.8 101780 78
2002-12-12 08:03:47 51°15.423 2°51.54 2.7 272 -0.8 101780 78
2002-12-12 08:03:53 51°15.428 2°51.506 3.5 279 -0.8 101780 78
2002-12-12 08:03:58 51°15.431 2°51.477 3.7 280 -0.8 101780 78
2002-12-12 08:04:03 51°15.434 2°51.448 3.3 288 -0.8 101780 78
2002-12-12 08:04:09 51°15.438 2°51.414 3.9 293 -0.8 101780 78
2002-12-12 08:04:13 51°15.44 2°51.39 4 296 -0.8 101780 78
2002-12-12 08:04:18 51°15.443 2°51.362 4.1 303 -0.8 101780 78
2002-12-12 08:04:22 51°15.445 2°51.338 3.5 301 -0.8 101780 78
2002-12-12 08:04:29 51°15.449 2°51.297 4 309 -0.8 101780 78
2002-12-12 08:04:34 51°15.451 2°51.268 3.6 297 -0.8 101780 78
2002-12-12 08:04:38 51°15.453 2°51.245 3.5 291 -0.8 101780 78
2002-12-12 08:04:42 51°15.454 2°51.221 3.3 291 -0.8 101780 78
2002-12-12 08:04:49 51°15.458 2°51.181 3.9 295 -0.8 101770 78
2002-12-12 08:04:53 51°15.459 2°51.157 2.8 301 -0.8 101770 78
2002-12-12 08:04:58 51°15.461 2°51.128 3.9 292 -0.8 101780 78
2002-12-12 08:05:02 51°15.463 2°51.105 3.7 295 -0.8 101780 78
2002-12-12 08:05:09 51°15.465 2°51.064 4.7 290 -0.8 101780 78
2002-12-12 08:05:13 51°15.467 2°51.04 4.9 299 -0.8 101780 78
2002-12-12 08:05:18 51°15.47 2°51.011 4 302 -0.8 101770 78
2002-12-12 08:05:22 51°15.471 2°50.987 3.8 278 -0.8 101770 78
2002-12-12 08:05:29 51°15.475 2°50.947 4.2 284 -0.8 101770 78
2002-12-12 08:05:33 51°15.476 2°50.923 3.6 280 -0.8 101770 78
2002-12-12 08:05:38 51°15.478 2°50.894 3.6 292 -0.8 101780 78
2002-12-12 08:05:42 51°15.48 2°50.871 3.9 290 -0.8 101780 78
2002-12-12 08:05:49 51°15.484 2°50.83 3.4 288 -0.8 101780 78
2002-12-12 08:05:53 51°15.486 2°50.806 3.5 307 -0.8 101780 78
2002-12-12 08:05:58 51°15.488 2°50.777 2.6 289 -0.8 101780 78
2002-12-12 08:06:02 51°15.491 2°50.754 3.9 290 -0.8 101780 78
2002-12-12 08:06:09 51°15.493 2°50.713 2.8 279 -0.8 101780 78
2002-12-12 08:06:13 51°15.495 2°50.689 3.9 285 -0.8 101780 78
2002-12-12 08:06:17 51°15.496 2°50.666 3.2 286 -0.7 101780 78
2002-12-12 08:06:23 51°15.5 2°50.631 4.1 294 -0.7 101780 78
2002-12-12 08:06:27 51°15.501 2°50.608 3.5 293 -0.7 101800 78
2002-12-12 08:06:33 51°15.504 2°50.573 3.4 292 -0.7 101800 78
2002-12-12 08:06:38 51°15.506 2°50.544 3.6 287 -0.7 101770 79
2002-12-12 08:06:43 51°15.508 2°50.515 2.7 280 -0.7 101770 79
2002-12-12 08:06:49 51°15.513 2°50.481 3.3 296 -0.7 101780 79
2002-12-12 08:06:53 51°15.515 2°50.457 3.1 289 -0.7 101780 79
2002-12-12 08:06:58 51°15.519 2°50.428 3.9 290 -0.7 101780 79
2002-12-12 08:07:03 51°15.521 2°50.399 3.3 273 -0.7 101780 79
2002-12-12 08:07:09 51°15.526 2°50.365 3.4 283 -0.7 101790 79
2002-12-12 08:07:14 51°15.529 2°50.336 3.4 282 -0.7 101790 79
2002-12-12 08:07:18 51°15.533 2°50.313 3.5 287 -0.7 101780 79
2002-12-12 08:07:22 51°15.535 2°50.29 3.5 275 -0.7 101780 79
2002-12-12 08:07:29 51°15.541 2°50.25 4.3 276 -0.7 101780 79
2002-12-12 08:07:33 51°15.543 2°50.227 3.2 265 -0.7 101780 79
2002-12-12 08:07:37 51°15.547 2°50.204 4 282 -0.7 101780 79
2002-12-12 08:07:43 51°15.55 2°50.169 3.5 282 -0.7 101780 79
2002-12-12 08:07:49 51°15.555 2°50.135 4.1 285 -0.7 101780 79
2002-12-12 08:07:53 51°15.559 2°50.112 3.9 293 -0.7 101780 79
2002-12-12 08:07:58 51°15.562 2°50.083 3.5 288 -0.7 101780 79
2002-12-12 08:08:02 51°15.565 2°50.06 4 293 -0.7 101780 79
2002-12-12 08:08:09 51°15.57 2°50.019 2.7 288 -0.7 101780 79
2002-12-12 08:08:13 51°15.575 2°49.997 3.7 293 -0.7 101780 79
2002-12-12 08:08:17 51°15.577 2°49.974 2.8 289 -0.7 101780 79
2002-12-12 08:08:23 51°15.584 2°49.94 3.3 291 -0.7 101780 79
2002-12-12 08:08:29 51°15.589 2°49.906 2.5 284 -0.6 101790 79
2002-12-12 08:08:33 51°15.594 2°49.883 3.2 287 -0.6 101790 79
2002-12-12 08:08:38 51°15.598 2°49.855 2.2 271 -0.6 101780 79
2002-12-12 08:08:44 51°15.604 2°49.821 2.5 289 -0.6 101780 79
2002-12-12 08:08:49 51°15.61 2°49.793 2.5 292 -0.6 101790 79
2002-12-12 08:08:53 51°15.614 2°49.771 3.1 292 -0.6 101790 79
2002-12-12 08:08:57 51°15.618 2°49.748 2.8 290 -0.6 101790 79
2002-12-12 08:09:04 51°15.626 2°49.709 2.6 293 -0.6 101790 79
2002-12-12 08:09:07 51°15.629 2°49.692 2.1 293 -0.6 101780 79
2002-12-12 08:09:14 51°15.636 2°49.652 2.2 286 -0.6 101780 79
2002-12-12 08:09:19 51°15.641 2°49.624 1.7 276 -0.6 101790 79
2002-12-12 08:09:23 51°15.645 2°49.602 2.2 266 -0.6 101790 79
2002-12-12 08:09:29 51°15.651 2°49.568 2.7 275 -0.6 101790 79
2002-12-12 08:09:33 51°15.654 2°49.545 3.2 274 -0.6 101790 79
2002-12-12 08:09:38 51°15.66 2°49.517 3.4 272 -0.6 101790 79
2002-12-12 08:09:43 51°15.665 2°49.489 3 272 -0.6 101790 79
2002-12-12 08:09:49 51°15.67 2°49.456 2.7 266 -0.6 101790 79
2002-12-12 08:09:53 51°15.674 2°49.433 2.5 264 -0.6 101790 79
2002-12-12 08:09:58 51°15.679 2°49.405 2.9 260 -0.6 101780 79
2002-12-12 08:10:03 51°15.683 2°49.377 3.7 270 -0.6 101780 79
2002-12-12 08:10:09 51°15.689 2°49.343 3.9 281 -0.6 101790 79
2002-12-12 08:10:13 51°15.692 2°49.32 3.5 269 -0.6 101790 79
2002-12-12 08:10:17 51°15.696 2°49.298 3.9 262 -0.6 101790 79
2002-12-12 08:10:22 51°15.701 2°49.27 2.9 275 -0.6 101790 79
2002-12-12 08:10:29 51°15.708 2°49.231 3.6 278 -0.6 101790 79
2002-12-12 08:10:33 51°15.712 2°49.208 3.2 272 -0.6 101790 79
2002-12-12 08:10:37 51°15.716 2°49.186 3.5 261 -0.6 101790 79
2002-12-12 08:10:43 51°15.721 2°49.152 2.4 271 -0.6 101790 79
2002-12-12 08:10:49 51°15.727 2°49.117 3 289 -0.6 101800 79
2002-12-12 08:10:54 51°15.732 2°49.089 2.9 284 -0.6 101800 79
2002-12-12 08:10:57 51°15.734 2°49.072 2.5 279 -0.6 101790 79
2002-12-12 08:11:02 51°15.739 2°49.043 3.2 283 -0.6 101790 79
2002-12-12 08:11:09 51°15.747 2°49.003 2.9 276 -0.6 101790 80
2002-12-12 08:11:13 51°15.75 2°48.98 3.2 274 -0.6 101790 80
2002-12-12 08:11:19 51°15.756 2°48.945 3.4 268 -0.6 101800 80
2002-12-12 08:11:21 51°15.758 2°48.934 3.1 277 -0.6 101800 80
2002-12-12 08:11:29 51°15.765 2°48.888 3.5 286 -0.6 101790 80
2002-12-12 08:11:33 51°15.769 2°48.864 3.7 279 -0.6 101790 80
2002-12-12 08:11:37 51°15.774 2°48.841 4.1 288 -0.5 101790 80
2002-12-12 08:11:43 51°15.779 2°48.806 3.2 281 -0.5 101790 80
2002-12-12 08:11:49 51°15.785 2°48.771 3.4 291 -0.5 101790 80
2002-12-12 08:11:53 51°15.789 2°48.748 3.2 296 -0.5 101790 80
2002-12-12 08:11:58 51°15.794 2°48.719 2.7 286 -0.5 101790 80
2002-12-12 08:12:02 51°15.798 2°48.696 2.8 286 -0.5 101790 80
2002-12-12 08:12:09 51°15.805 2°48.655 3.3 295 -0.6 101800 80
2002-12-12 08:12:14 51°15.81 2°48.626 4.3 285 -0.6 101800 80
2002-12-12 08:12:17 51°15.813 2°48.609 4.2 294 -0.6 101790 80
2002-12-12 08:12:23 51°15.819 2°48.574 3.7 291 -0.6 101790 80
2002-12-12 08:12:29 51°15.825 2°48.539 3 296 -0.6 101790 80
2002-12-12 08:12:33 51°15.829 2°48.516 3.1 292 -0.6 101790 80
2002-12-12 08:12:38 51°15.833 2°48.486 2.7 280 -0.6 101790 80
2002-12-12 08:12:41 51°15.836 2°48.469 3.9 291 -0.6 101790 80
2002-12-12 08:12:49 51°15.844 2°48.423 4.1 284 -0.5 101790 80
2002-12-12 08:12:53 51°15.848 2°48.401 4.5 296 -0.5 101790 80
2002-12-12 08:12:59 51°15.853 2°48.365 3.6 294 -0.5 101790 80
2002-12-12 08:13:03 51°15.858 2°48.342 4.1 294 -0.5 101790 80
2002-12-12 08:13:09 51°15.863 2°48.308 3.6 294 -0.5 101790 80
2002-12-12 08:13:13 51°15.867 2°48.285 3.4 296 -0.5 101790 80
2002-12-12 08:13:18 51°15.872 2°48.256 2.6 278 -0.5 101790 80
2002-12-12 08:13:23 51°15.878 2°48.227 4.7 283 -0.5 101790 80
2002-12-12 08:13:29 51°15.882 2°48.192 3.3 290 -0.5 101790 80
2002-12-12 08:13:33 51°15.887 2°48.169 3.8 300 -0.5 101790 80
2002-12-12 08:13:38 51°15.891 2°48.14 3.5 308 -0.5 101790 80
2002-12-12 08:13:43 51°15.897 2°48.111 3.2 307 -0.5 101790 80
2002-12-12 08:13:49 51°15.902 2°48.076 2.3 329 -0.5 101790 80
2002-12-12 08:13:53 51°15.907 2°48.053 2.8 311 -0.5 101790 80
2002-12-12 08:13:59 51°15.912 2°48.018 2.3 285 -0.5 101780 80
2002-12-12 08:14:03 51°15.917 2°47.996 3.2 297 -0.5 101780 80
2002-12-12 08:14:08 51°15.921 2°47.967 1.7 308 -0.5 101780 80
2002-12-12 08:14:13 51°15.926 2°47.938 3.1 303 -0.5 101780 80
2002-12-12 08:14:18 51°15.932 2°47.91 3.2 287 -0.5 101790 80
2002-12-12 08:14:22 51°15.935 2°47.887 3 299 -0.5 101790 80
2002-12-12 08:14:29 51°15.942 2°47.847 2.6 300 -0.5 101790 80
2002-12-12 08:14:33 51°15.945 2°47.824 2.3 295 -0.5 101790 80
2002-12-12 08:14:38 51°15.951 2°47.796 2.2 298 -0.5 101790 80
2002-12-12 08:14:42 51°15.954 2°47.773 3 283 -0.5 101790 80
2002-12-12 08:14:49 51°15.962 2°47.733 4.5 291 -0.5 101790 80
2002-12-12 08:14:53 51°15.965 2°47.71 3.8 277 -0.5 101790 80
2002-12-12 08:14:58 51°15.971 2°47.682 3.8 295 -0.5 101790 80
2002-12-12 08:15:03 51°15.975 2°47.653 2.9 284 -0.5 101790 80
2002-12-12 08:15:09 51°15.982 2°47.619 3.5 295 -0.5 101790 80
2002-12-12 08:15:13 51°15.985 2°47.596 2.4 264 -0.5 101790 80
2002-12-12 08:15:18 51°15.99 2°47.569 3.2 294 -0.5 101800 80
2002-12-12 08:15:22 51°15.993 2°47.546 2.5 292 -0.5 101800 80
2002-12-12 08:15:29 51°16.001 2°47.506 4.4 293 -0.5 101790 80
2002-12-12 08:15:34 51°16.005 2°47.478 3.3 293 -0.5 101790 80
2002-12-12 08:15:37 51°16.009 2°47.461 4.9 295 -0.5 101790 80
2002-12-12 08:15:42 51°16.012 2°47.432 3.2 300 -0.5 101790 80
2002-12-12 08:15:48 51°16.019 2°47.399 3.8 300 -0.5 101790 80
2002-12-12 08:15:53 51°16.023 2°47.37 2.9 285 -0.5 101790 80
2002-12-12 08:15:58 51°16.029 2°47.341 3.6 290 -0.5 101790 80
2002-12-12 08:16:02 51°16.031 2°47.318 2.6 270 -0.5 101790 80
2002-12-12 08:16:08 51°16.038 2°47.284 3 292 -0.5 101790 80
2002-12-12 08:16:12 51°16.042 2°47.262 3.6 287 -0.5 101790 80
2002-12-12 08:16:18 51°16.047 2°47.227 3.8 272 -0.5 101790 80
2002-12-12 08:16:22 51°16.052 2°47.205 4 288 -0.5 101790 80
2002-12-12 08:16:28 51°16.057 2°47.17 3.4 276 -0.5 101790 80
2002-12-12 08:16:33 51°16.064 2°47.142 4.2 285 -0.5 101790 80
2002-12-12 08:16:38 51°16.068 2°47.113 3.8 275 -0.5 101790 80
2002-12-12 08:16:44 51°16.075 2°47.08 4 294 -0.5 101790 80
2002-12-12 08:16:48 51°16.078 2°47.057 3.5 282 -0.4 101780 80
2002-12-12 08:16:53 51°16.084 2°47.03 2.9 285 -0.4 101780 80
2002-12-12 08:16:58 51°16.089 2°47.001 2.8 289 -0.4 101790 81
2002-12-12 08:17:03 51°16.096 2°46.974 3.4 274 -0.4 101790 81
2002-12-12 08:17:08 51°16.102 2°46.946 3.5 281 -0.4 101790 81
2002-12-12 08:17:13 51°16.107 2°46.919 2.8 278 -0.4 101790 81
2002-12-12 08:17:19 51°16.115 2°46.886 4.1 294 -0.4 101790 81
2002-12-12 08:17:23 51°16.121 2°46.864 2.9 298 -0.4 101790 81
2002-12-12 08:17:29 51°16.13 2°46.831 3.1 296 -0.4 101790 81
2002-12-12 08:17:33 51°16.135 2°46.809 2.3 291 -0.4 101790 81
2002-12-12 08:17:39 51°16.146 2°46.778 2.9 293 -0.4 101780 81
2002-12-12 08:17:43 51°16.15 2°46.755 2 254 -0.4 101780 81
2002-12-12 08:17:49 51°16.16 2°46.724 2.6 287 -0.4 101790 80
2002-12-12 08:17:52 51°16.163 2°46.707 2 265 -0.4 101790 80
2002-12-12 08:17:59 51°16.174 2°46.668 2.2 259 -0.4 101790 80
2002-12-12 08:18:03 51°16.179 2°46.646 2.7 275 -0.4 101790 80
2002-12-12 08:18:09 51°16.188 2°46.614 2.3 253 -0.4 101800 80
2002-12-12 08:18:14 51°16.196 2°46.588 3.2 267 -0.4 101800 80
2002-12-12 08:18:18 51°16.203 2°46.566 3 267 -0.5 101800 80
2002-12-12 08:18:23 51°16.211 2°46.54 3.2 250 -0.5 101800 80
2002-12-12 08:18:29 51°16.222 2°46.509 2.8 258 -0.4 101790 81
2002-12-12 08:18:34 51°16.23 2°46.483 2.6 269 -0.4 101790 81
2002-12-12 08:18:37 51°16.236 2°46.467 1.9 255 -0.4 101800 81
2002-12-12 08:18:42 51°16.245 2°46.441 2.7 268 -0.4 101800 81
2002-12-12 08:18:49 51°16.256 2°46.404 2.5 264 -0.4 101800 81
2002-12-12 08:18:53 51°16.264 2°46.383 2.3 288 -0.4 101800 81
2002-12-12 08:18:59 51°16.275 2°46.352 2 265 -0.4 101800 81
2002-12-12 08:19:03 51°16.282 2°46.331 2.8 255 -0.4 101800 81
2002-12-12 08:19:09 51°16.294 2°46.301 2.6 271 -0.4 101800 81
2002-12-12 08:19:14 51°16.304 2°46.276 2.4 254 -0.4 101800 81
2002-12-12 08:19:18 51°16.313 2°46.257 2.2 252 -0.4 101790 81
2002-12-12 08:19:23 51°16.325 2°46.233 2 247 -0.4 101790 81
2002-12-12 08:19:29 51°16.34 2°46.207 2.1 243 -0.4 101800 81
2002-12-12 08:19:34 51°16.353 2°46.185 2.3 238 -0.4 101800 81
2002-12-12 08:19:38 51°16.364 2°46.167 2 256 -0.3 101790 81
2002-12-12 08:19:43 51°16.377 2°46.146 2 240 -0.3 101790 81
2002-12-12 08:19:47 51°16.388 2°46.129 2 238 -0.3 101800 81
2002-12-12 08:19:54 51°16.407 2°46.099 1.6 254 -0.3 101800 81
2002-12-12 08:19:58 51°16.418 2°46.082 1.7 254 -0.3 101800 81
2002-12-12 08:20:03 51°16.432 2°46.06 1.8 239 -0.3 101800 81
2002-12-12 08:20:09 51°16.449 2°46.035 1.7 237 -0.3 101800 81
2002-12-12 08:20:14 51°16.462 2°46.013 1.6 241 -0.3 101800 81
2002-12-12 08:20:18 51°16.473 2°45.996 1.9 241 -0.3 101790 81
2002-12-12 08:20:23 51°16.487 2°45.974 1.9 243 -0.3 101790 81
2002-12-12 08:20:29 51°16.504 2°45.948 1.5 252 -0.3 101790 81
2002-12-12 08:20:33 51°16.514 2°45.93 1.9 199 -0.3 101790 81
2002-12-12 08:20:38 51°16.529 2°45.908 1.7 192 -0.3 101790 81
2002-12-12 08:20:42 51°16.539 2°45.891 1.2 159 -0.3 101790 81
2002-12-12 08:20:49 51°16.559 2°45.86 0.9 152 -0.3 101800 81
2002-12-12 08:20:53 51°16.57 2°45.843 1.6 147 -0.3 101800 81
2002-12-12 08:20:59 51°16.587 2°45.816 1.6 187 -0.3 101800 81
2002-12-12 08:21:03 51°16.598 2°45.798 1.6 192 -0.3 101800 81
2002-12-12 08:21:09 51°16.614 2°45.772 1.5 217 -0.3 101790 81
2002-12-12 08:21:14 51°16.628 2°45.749 1.1 206 -0.3 101790 81
2002-12-12 08:21:19 51°16.641 2°45.727 0.9 194 -0.3 101790 81
2002-12-12 08:21:23 51°16.652 2°45.71 1.4 169 -0.3 101790 81
2002-12-12 08:21:26 51°16.661 2°45.697 1.5 143 -0.3 101800 81
2002-12-12 08:21:33 51°16.68 2°45.666 0.9 152 -0.3 101800 81
2002-12-12 08:21:39 51°16.697 2°45.639 0.8 183 -0.2 101790 81
2002-12-12 08:21:43 51°16.708 2°45.622 1.2 184 -0.2 101790 81
2002-12-12 08:21:49 51°16.725 2°45.595 1.5 168 -0.2 101790 81
2002-12-12 08:21:54 51°16.738 2°45.572 1.6 174 -0.2 101790 81
2002-12-12 08:21:59 51°16.752 2°45.55 1.4 181 -0.2 101790 81
2002-12-12 08:22:03 51°16.763 2°45.532 1 247 -0.2 101790 81
2002-12-12 08:22:09 51°16.779 2°45.506 0.9 162 -0.2 101790 81
2002-12-12 08:22:14 51°16.793 2°45.484 1 116 -0.2 101790 81
2002-12-12 08:22:18 51°16.804 2°45.466 0.7 119 -0.2 101790 82
2002-12-12 08:22:23 51°16.818 2°45.444 0.4 184 -0.2 101790 82
2002-12-12 08:22:29 51°16.834 2°45.417 0.7 86 -0.1 101790 82
2002-12-12 08:22:33 51°16.845 2°45.399 1 47 -0.1 101790 82
2002-12-12 08:22:38 51°16.858 2°45.377 1.3 126 -0.1 101790 82
2002-12-12 08:22:44 51°16.875 2°45.35 1.1 138 -0.1 101790 82
2002-12-12 08:22:49 51°16.888 2°45.328 1.3 127 -0.1 101800 82
2002-12-12 08:22:53 51°16.899 2°45.311 1.9 125 -0.1 101800 82
2002-12-12 08:22:59 51°16.916 2°45.285 1 127 -0.1 101800 82
2002-12-12 08:23:03 51°16.927 2°45.268 1.2 138 -0.1 101800 82
2002-12-12 08:23:09 51°16.944 2°45.242 0.7 150 -0.1 101800 82
2002-12-12 08:23:13 51°16.956 2°45.225 1.5 123 -0.1 101800 82
2002-12-12 08:23:19 51°16.972 2°45.198 1.3 125 -0.1 101790 82
2002-12-12 08:23:23 51°16.983 2°45.181 1.2 118 -0.1 101790 82
2002-12-12 08:23:29 51°17 2°45.155 1 101   101800 82
2002-12-12 08:23:34 51°17.014 2°45.133 0.7 172   101800 82
2002-12-12 08:23:38 51°17.025 2°45.116 0.6 177   101790 82
2002-12-12 08:23:42 51°17.036 2°45.099 0.5 187   101790 82
2002-12-12 08:23:49 51°17.056 2°45.069 1.2 250 -0.1 101800 82
2002-12-12 08:23:54 51°17.07 2°45.047 1.1 234 -0.1 101800 82
2002-12-12 08:23:59 51°17.084 2°45.026 1.1 225   101800 81
2002-12-12 08:24:03 51°17.095 2°45.009 0.9 242   101800 81
2002-12-12 08:24:09 51°17.112 2°44.982 2 195   101810 81
2002-12-12 08:24:13 51°17.124 2°44.966 1.9 198   101810 81
2002-12-12 08:24:17 51°17.135 2°44.949 1.8 233 -0.1 101800 81
2002-12-12 08:24:23 51°17.152 2°44.923 1.6 235 -0.1 101800 81
2002-12-12 08:24:29 51°17.169 2°44.898 1.5 200   101800 81
2002-12-12 08:24:33 51°17.181 2°44.881 1.5 230   101800 81
2002-12-12 08:24:39 51°17.197 2°44.855 1.9 205   101790 81
2002-12-12 08:24:43 51°17.209 2°44.838 1.4 215   101790 81
2002-12-12 08:24:48 51°17.223 2°44.817 1.6 224   101800 81
2002-12-12 08:24:54 51°17.24 2°44.791 1.7 248   101800 81
2002-12-12 08:24:58 51°17.251 2°44.774 1.8 222   101800 81
2002-12-12 08:25:03 51°17.265 2°44.751 1.5 228   101800 81
2002-12-12 08:25:09 51°17.283 2°44.726 1.5 226 -0.1 101800 81
2002-12-12 08:25:13 51°17.294 2°44.709 1.7 229 -0.1 101800 81
2002-12-12 08:25:19 51°17.311 2°44.683 1.3 221 -0.1 101800 81
2002-12-12 08:25:24 51°17.325 2°44.662 1.3 222 -0.1 101800 81
2002-12-12 08:25:29 51°17.339 2°44.641 1.3 214 -0.1 101800 81
2002-12-12 08:25:34 51°17.354 2°44.619 1.5 196 -0.1 101800 81
2002-12-12 08:25:37 51°17.362 2°44.606 1.5 184 -0.1 101800 81
2002-12-12 08:25:43 51°17.379 2°44.581 1.2 195 -0.1 101800 81
2002-12-12 08:25:49 51°17.396 2°44.555 1 189 -0.1 101800 81
2002-12-12 08:25:53 51°17.407 2°44.539 0.8 150 -0.1 101800 81
2002-12-12 08:25:59 51°17.423 2°44.517 0.8 120 -0.1 101810 81
2002-12-12 08:26:04 51°17.436 2°44.501 1.3 125 -0.1 101810 81
2002-12-12 08:26:09 51°17.448 2°44.486 1.3 103 -0.1 101800 81
2002-12-12 08:26:14 51°17.46 2°44.472 2 86 -0.1 101800 81
2002-12-12 08:26:18 51°17.469 2°44.461 1.7 80 -0.2 101810 81
2002-12-12 08:26:24 51°17.481 2°44.446 2.3 69 -0.2 101810 81
2002-12-12 08:26:29 51°17.49 2°44.433 2.1 58 -0.2 101810 81
2002-12-12 08:26:34 51°17.497 2°44.42 1.8 30 -0.2 101810 81
2002-12-12 08:26:38 51°17.503 2°44.411 2.6 13 -0.2 101800 81
2002-12-12 08:26:43 51°17.509 2°44.399 3.3 26 -0.2 101800 81
2002-12-12 08:26:49 51°17.515 2°44.384 3.5 13 -0.2 101800 81
2002-12-12 08:26:54 51°17.52 2°44.373 3.4 9 -0.2 101800 81
2002-12-12 08:26:58 51°17.523 2°44.363 3.3 8 -0.2 101800 81
2002-12-12 08:27:03 51°17.527 2°44.352 2.7 9 -0.2 101800 81
2002-12-12 08:27:09 51°17.532 2°44.339 3.4 6 -0.2 101810 81
2002-12-12 08:27:13 51°17.534 2°44.331 4.5 15 -0.2 101810 81
2002-12-12 08:27:19 51°17.537 2°44.321 4.9 17 -0.1 101800 81
2002-12-12 08:27:23 51°17.539 2°44.315 5.3 12 -0.1 101800 81
2002-12-12 08:27:29 51°17.541 2°44.307 5.7 2 -0.1 101810 82
2002-12-12 08:27:34 51°17.542 2°44.302 3.9 351 -0.1 101810 82
2002-12-12 08:27:38 51°17.543 2°44.299 3.7 1 -0.1 101820 82
2002-12-12 08:27:43 51°17.544 2°44.296 4.5 358 -0.1 101820 82
2002-12-12 08:27:49 51°17.544 2°44.293 5.2 352 -0.1 101810 82
2002-12-12 08:27:53 51°17.545 2°44.292 4.1 339 -0.1 101810 82
2002-12-12 08:27:59 51°17.545 2°44.291 1.3 333 -0.1 101820 82
2002-12-12 08:28:03 51°17.546 2°44.29 1 335 -0.1 101820 82
2002-12-12 08:28:09 51°17.547 2°44.289 1.6 345   101820 82
2002-12-12 08:28:13 51°17.548 2°44.288 0.9 322   101820 82
2002-12-12 08:28:19 51°17.548 2°44.288 0.6 331   101820 82
2002-12-12 08:28:23 51°17.549 2°44.286 1.1 318   101820 82
2002-12-12 08:28:29 51°17.549 2°44.285 2 327 0.1 101820 83
2002-12-12 08:28:34 51°17.549 2°44.284 3 316 0.1 101820 83
2002-12-12 08:28:39 51°17.55 2°44.283 2.4 336 0.1 101820 83
2002-12-12 08:28:44 51°17.55 2°44.282 1.2 316 0.1 101820 83
2002-12-12 08:28:48 51°17.55 2°44.282 3.4 308 0.1 101820 82
2002-12-12 08:28:54 51°17.55 2°44.28 2.7 322 0.1 101820 82
2002-12-12 08:28:58 51°17.551 2°44.28 4 308   101820 82
2002-12-12 08:29:04 51°17.551 2°44.279 3.7 303   101820 82
2002-12-12 08:29:09 51°17.551 2°44.278 4.6 307   101820 82
2002-12-12 08:29:14 51°17.551 2°44.277 4.4 316   101820 82
2002-12-12 08:29:18 51°17.551 2°44.277 3.3 307 0.1 101820 82
2002-12-12 08:29:23 51°17.551 2°44.275 4.7 318 0.1 101820 82
2002-12-12 08:29:29 51°17.551 2°44.274 3.5 312 0.1 101820 82
2002-12-12 08:29:33 51°17.551 2°44.274 3.4 312 0.1 101820 82
2002-12-12 08:29:39 51°17.551 2°44.273 4.4 307 0.1 101810 82
2002-12-12 08:29:41 51°17.551 2°44.272 4.7 303 0.1 101810 82
2002-12-12 08:29:49 51°17.551 2°44.271 4.9 317 0.1 101820 82
2002-12-12 08:29:54 51°17.551 2°44.27 4.6 304 0.1 101820 82
2002-12-12 08:29:59 51°17.551 2°44.269 6.8 310 0.1 101810 82
2002-12-12 08:30:04 51°17.55 2°44.268 6 310 0.1 101810 82
2002-12-12 08:30:09 51°17.55 2°44.267 5.8 307 0.1 101810 82
2002-12-12 08:30:13 51°17.55 2°44.267 3.6 313 0.1 101810 82
2002-12-12 08:30:19 51°17.55 2°44.265 4.4 307 0.1 101820 82
2002-12-12 08:30:23 51°17.55 2°44.265 4 312 0.1 101820 82
2002-12-12 08:30:29 51°17.55 2°44.264 6.3 308 0.1 101820 82
2002-12-12 08:30:34 51°17.55 2°44.263 5.1 314 0.1 101820 82
2002-12-12 08:30:39 51°17.55 2°44.262 6.2 316 0.1 101810 82
2002-12-12 08:30:44 51°17.55 2°44.261 5.9 304 0.1 101810 82
2002-12-12 08:30:49 51°17.549 2°44.26 7 306 0.1 101800 82
2002-12-12 08:30:54 51°17.549 2°44.259 7.1 298 0.1 101800 82
2002-12-12 08:30:57 51°17.549 2°44.259 5.2 308 0.1 101810 82
2002-12-12 08:31:04 51°17.548 2°44.258 5.4 309 0.1 101810 82
2002-12-12 08:31:09 51°17.548 2°44.257 6.1 304 0.1 101820 82
2002-12-12 08:31:14 51°17.547 2°44.256 7 294 0.1 101820 82
2002-12-12 08:31:18 51°17.547 2°44.256 7.3 296 0.1 101820 82
2002-12-12 08:31:23 51°17.547 2°44.255 7.5 298 0.1 101820 82
2002-12-12 08:31:29 51°17.546 2°44.254 6.9 295 0.1 101810 82
2002-12-12 08:31:33 51°17.546 2°44.254 7.8 298 0.1 101810 82
2002-12-12 08:31:39 51°17.545 2°44.253 7.5 295 0.2 101820 82
2002-12-12 08:31:43 51°17.544 2°44.253 7 296 0.2 101820 82
2002-12-12 08:31:49 51°17.544 2°44.252 7.1 299 0.2 101820 82
2002-12-12 08:31:54 51°17.544 2°44.252 7.2 290 0.2 101820 82
2002-12-12 08:31:59 51°17.543 2°44.251 7.8 289 0.2 101820 82
2002-12-12 08:32:03 51°17.543 2°44.251 7.6 293 0.2 101820 82
2002-12-12 08:32:09 51°17.543 2°44.25 7.4 292 0.2 101810 82
2002-12-12 08:32:14 51°17.543 2°44.249 7.3 292 0.2 101810 82
2002-12-12 08:32:18 51°17.542 2°44.249 7.7 295 0.2 101810 82
2002-12-12 08:32:23 51°17.542 2°44.249 7.9 293 0.2 101810 82
2002-12-12 08:32:29 51°17.541 2°44.249 7.2 289 0.2 101810 83
2002-12-12 08:32:33 51°17.541 2°44.249 8 285 0.2 101810 83
2002-12-12 08:32:39 51°17.54 2°44.249 7.5 284 0.2 101820 82
2002-12-12 08:32:41 51°17.54 2°44.249 7.5 287 0.2 101820 82
2002-12-12 08:32:49 51°17.539 2°44.249 7.5 285 0.2 101800 82
2002-12-12 08:32:54 51°17.539 2°44.248 7.6 279 0.2 101800 82
2002-12-12 08:32:58 51°17.539 2°44.249 8.5 279 0.2 101810 82
2002-12-12 08:33:04 51°17.538 2°44.248 8 282 0.2 101810 82
2002-12-12 08:33:09 51°17.538 2°44.249 7.1 278 0.1 101810 82
2002-12-12 08:33:13 51°17.538 2°44.248 6.7 277 0.1 101810 82
2002-12-12 08:33:19 51°17.537 2°44.249 6.5 276 0.2 101800 82
2002-12-12 08:33:24 51°17.537 2°44.249 7.9 274 0.2 101800 82
2002-12-12 08:33:29 51°17.536 2°44.249 7.8 274 0.1 101820 82
2002-12-12 08:33:34 51°17.536 2°44.25 8.3 275 0.1 101820 82
2002-12-12 08:33:39 51°17.535 2°44.25 7.6 272 0.1 101810 82
2002-12-12 08:33:43 51°17.535 2°44.25 7.9 275 0.1 101810 82
2002-12-12 08:33:49 51°17.535 2°44.251 8 267 0.1 101800 82
2002-12-12 08:33:54 51°17.534 2°44.251 7.4 268 0.1 101800 82
2002-12-12 08:33:57 51°17.534 2°44.251 8 267 0.1 101800 82
2002-12-12 08:34:04 51°17.533 2°44.251 7.5 262 0.1 101800 82
2002-12-12 08:34:09 51°17.533 2°44.252 7.7 263 0.1 101800 82
2002-12-12 08:34:14 51°17.533 2°44.252 7.3 261 0.1 101800 82
2002-12-12 08:34:17 51°17.532 2°44.253 7 261 0.1 101800 82
2002-12-12 08:34:23 51°17.532 2°44.253 7.4 256 0.1 101800 82
2002-12-12 08:34:29 51°17.532 2°44.254 7.5 261 0.1 101790 82
2002-12-12 08:34:34 51°17.532 2°44.254 7 256 0.1 101790 82
2002-12-12 08:34:38 51°17.532 2°44.254 7.6 255 0.1 101790 81
2002-12-12 08:34:43 51°17.531 2°44.255 8.1 256 0.1 101790 81
2002-12-12 08:34:49 51°17.531 2°44.256 7.2 250   101800 81
2002-12-12 08:34:54 51°17.531 2°44.257 7.4 249   101800 81
2002-12-12 08:34:59 51°17.531 2°44.258 7.8 255   101790 81
2002-12-12 08:35:03 51°17.531 2°44.258 7.6 256   101790 81
2002-12-12 08:35:09 51°17.531 2°44.258 7.1 257   101800 81
2002-12-12 08:35:13 51°17.53 2°44.259 6.9 255   101800 81
2002-12-12 08:35:19 51°17.53 2°44.26 7.1 253   101790 81
2002-12-12 08:35:24 51°17.53 2°44.261 7.7 256   101790 81
2002-12-12 08:35:29 51°17.53 2°44.261 7 250   101790 81
2002-12-12 08:35:33 51°17.53 2°44.262 7.2 249   101790 81
2002-12-12 08:35:38 51°17.53 2°44.263 6.8 256   101790 81
2002-12-12 08:35:43 51°17.53 2°44.264 7.2 255   101790 81
2002-12-12 08:35:49 51°17.53 2°44.265 6.6 252   101790 81
2002-12-12 08:35:54 51°17.529 2°44.265 6.7 252   101790 81
2002-12-12 08:35:59 51°17.529 2°44.266 6.2 254   101790 81
2002-12-12 08:36:03 51°17.529 2°44.267 6.1 243   101790 81
2002-12-12 08:36:09 51°17.529 2°44.268 6.2 248   101790 81
2002-12-12 08:36:13 51°17.529 2°44.268 5.9 243   101790 81
2002-12-12 08:36:19 51°17.529 2°44.27 6 241   101790 81
2002-12-12 08:36:23 51°17.529 2°44.271 6.6 239   101790 81
2002-12-12 08:36:29 51°17.529 2°44.272 6.7 250   101800 81
2002-12-12 08:36:34 51°17.529 2°44.273 8.3 254   101800 81
2002-12-12 08:36:39 51°17.529 2°44.274 8.6 256   101800 81
2002-12-12 08:36:43 51°17.528 2°44.274 8.2 255   101800 81
2002-12-12 08:36:49 51°17.528 2°44.275 8.1 254   101800 82
2002-12-12 08:36:53 51°17.528 2°44.276 8.2 259   101800 82
2002-12-12 08:36:59 51°17.528 2°44.277 7.9 259   101800 82
2002-12-12 08:37:03 51°17.527 2°44.278 8.1 257   101800 82
2002-12-12 08:37:09 51°17.527 2°44.279 7.8 257   101790 81
2002-12-12 08:37:13 51°17.527 2°44.279 8 259   101790 81
2002-12-12 08:37:19 51°17.527 2°44.28 7.4 260   101790 81
2002-12-12 08:37:23 51°17.526 2°44.281 7.3 261   101790 81
2002-12-12 08:37:29 51°17.526 2°44.282 7.4 260   101800 81
2002-12-12 08:37:34 51°17.526 2°44.283 7.1 248   101800 81
2002-12-12 08:37:38 51°17.525 2°44.283 7.2 257   101790 81
2002-12-12 08:37:43 51°17.525 2°44.284 7.4 258   101790 81
2002-12-12 08:37:49 51°17.524 2°44.285 7 252   101800 81
2002-12-12 08:37:53 51°17.524 2°44.286 7.1 251   101800 81
2002-12-12 08:37:59 51°17.524 2°44.287 8 259 -0.1 101800 81
2002-12-12 08:38:03 51°17.524 2°44.287 8.5 259 -0.1 101800 81
2002-12-12 08:38:09 51°17.523 2°44.288 9.1 264   101800 81
2002-12-12 08:38:14 51°17.523 2°44.289 8 262   101800 81
2002-12-12 08:38:18 51°17.522 2°44.29 7.1 262 -0.1 101800 81
2002-12-12 08:38:23 51°17.522 2°44.291 6.9 260 -0.1 101800 81
2002-12-12 08:38:29 51°17.521 2°44.291 7.5 266 -0.1 101790 81
2002-12-12 08:38:34 51°17.521 2°44.292 7.2 265 -0.1 101790 81
2002-12-12 08:38:38 51°17.52 2°44.292 7.1 270   101780 81
2002-12-12 08:38:44 51°17.52 2°44.293 7.5 267   101780 81
2002-12-12 08:38:49 51°17.519 2°44.294 7.2 264   101790 81
2002-12-12 08:38:53 51°17.519 2°44.294 6.2 260   101790 81
2002-12-12 08:38:59 51°17.519 2°44.295 7 271 -0.1 101810 81
2002-12-12 08:39:03 51°17.518 2°44.295 6.8 263 -0.1 101810 81
2002-12-12 08:39:09 51°17.518 2°44.296 6.6 269 -0.1 101790 81
2002-12-12 08:39:14 51°17.517 2°44.297 8.3 271 -0.1 101790 81
2002-12-12 08:39:19 51°17.517 2°44.297 7.9 267 -0.1 101800 81
2002-12-12 08:39:24 51°17.516 2°44.298 7 269 -0.1 101800 81
2002-12-12 08:39:29 51°17.516 2°44.298 8.5 269 -0.1 101810 81
2002-12-12 08:39:33 51°17.516 2°44.298 8.3 267 -0.1 101810 81
2002-12-12 08:39:38 51°17.515 2°44.298 8 262   101800 81
2002-12-12 08:39:44 51°17.515 2°44.299 7.7 264   101800 81
2002-12-12 08:39:49 51°17.515 2°44.299 6.8 267   101800 81
2002-12-12 08:39:54 51°17.515 2°44.3 6.7 272   101800 81
2002-12-12 08:39:58 51°17.514 2°44.299 6.9 266   101800 81
2002-12-12 08:40:04 51°17.514 2°44.3 7.2 259   101800 81
2002-12-12 08:40:09 51°17.514 2°44.3 7.5 258   101790 81
2002-12-12 08:40:14 51°17.513 2°44.301 7.2 253   101790 81
2002-12-12 08:40:18 51°17.513 2°44.301 6.2 255 -0.1 101810 81
2002-12-12 08:40:24 51°17.513 2°44.301 7.2 259 -0.1 101810 81
2002-12-12 08:40:29 51°17.513 2°44.302 6.3 253   101810 81
2002-12-12 08:40:34 51°17.513 2°44.302 6.8 255   101810 81
2002-12-12 08:40:39 51°17.512 2°44.303 6.7 257 -0.1 101800 81
2002-12-12 08:40:44 51°17.512 2°44.303 6.4 253 -0.1 101800 81
2002-12-12 08:40:49 51°17.512 2°44.304 6.8 246 -0.1 101800 81
2002-12-12 08:40:53 51°17.512 2°44.305 6.1 243 -0.1 101800 81
2002-12-12 08:40:58 51°17.511 2°44.305 6.1 259 -0.1 101800 81
2002-12-12 08:41:04 51°17.511 2°44.306 5.8 257 -0.1 101800 81
2002-12-12 08:41:09 51°17.511 2°44.306 4.9 254 -0.1 101800 81
2002-12-12 08:41:13 51°17.511 2°44.307 6.4 256 -0.1 101800 81
2002-12-12 08:41:19 51°17.511 2°44.308 7.1 256 -0.1 101810 81
2002-12-12 08:41:24 51°17.511 2°44.308 7.4 256 -0.1 101810 81
2002-12-12 08:41:29 51°17.511 2°44.309 6.9 255   101810 81
2002-12-12 08:41:34 51°17.51 2°44.31 7.4 259   101810 81
2002-12-12 08:41:37 51°17.51 2°44.31 7.3 258   101800 82
2002-12-12 08:41:44 51°17.51 2°44.311 6.8 254   101800 82
2002-12-12 08:41:49 51°17.51 2°44.312 6.6 245   101790 82
2002-12-12 08:41:54 51°17.51 2°44.313 7.5 245   101790 82
2002-12-12 08:41:58 51°17.51 2°44.313 7.8 252   101800 82
2002-12-12 08:42:04 51°17.51 2°44.314 7.4 245   101800 82
2002-12-12 08:42:09 51°17.51 2°44.315 6.9 241   101800 81
2002-12-12 08:42:14 51°17.51 2°44.316 7.3 245   101800 81
2002-12-12 08:42:18 51°17.51 2°44.317 7.2 235 0.1 101810 81
2002-12-12 08:42:23 51°17.51 2°44.318 7 235 0.1 101810 81
2002-12-12 08:42:29 51°17.51 2°44.319 6.1 232 0.1 101790 81
2002-12-12 08:42:33 51°17.51 2°44.319 7.2 233 0.1 101790 81
2002-12-12 08:42:38 51°17.51 2°44.32 7.3 235   101800 81
2002-12-12 08:42:43 51°17.51 2°44.321 6.7 231   101800 81
2002-12-12 08:42:49 51°17.51 2°44.323 6.8 231   101810 81
2002-12-12 08:42:53 51°17.51 2°44.324 6.6 237   101810 81
2002-12-12 08:42:58 51°17.51 2°44.325 6.1 233 0.1 101810 81
2002-12-12 08:43:02 51°17.511 2°44.325 6.5 221 0.1 101810 81
2002-12-12 08:43:09 51°17.511 2°44.327 6.5 221 0.1 101810 81
2002-12-12 08:43:13 51°17.511 2°44.328 6.5 226 0.1 101810 81
2002-12-12 08:43:19 51°17.511 2°44.329 5.8 225 0.1 101810 81
2002-12-12 08:43:23 51°17.511 2°44.331 6.1 225 0.1 101810 81
2002-12-12 08:43:29 51°17.512 2°44.332 6.5 226 0.1 101820 81
2002-12-12 08:43:33 51°17.512 2°44.333 6.3 219 0.1 101820 81
2002-12-12 08:43:39 51°17.512 2°44.334 6.9 219   101800 81
2002-12-12 08:43:44 51°17.512 2°44.336 6.1 219   101800 81
2002-12-12 08:43:49 51°17.513 2°44.336 5.7 224 0.1 101810 81
2002-12-12 08:43:54 51°17.513 2°44.338 6.3 217 0.1 101810 81
2002-12-12 08:43:59 51°17.514 2°44.339 6.1 216   101820 80
2002-12-12 08:44:04 51°17.514 2°44.34 6.3 220   101820 80
2002-12-12 08:44:09 51°17.514 2°44.341 6.4 219 0.1 101810 81
2002-12-12 08:44:13 51°17.515 2°44.342 6.9 216 0.1 101810 81
2002-12-12 08:44:19 51°17.515 2°44.343 7.3 219 0.1 101810 81
2002-12-12 08:44:24 51°17.515 2°44.344 7.9 222 0.1 101810 81
2002-12-12 08:44:29 51°17.516 2°44.345 7.6 219 0.1 101810 81
2002-12-12 08:44:33 51°17.516 2°44.345 7.7 221 0.1 101810 81
2002-12-12 08:44:38 51°17.517 2°44.346 7.7 217 0.1 101810 81
2002-12-12 08:44:44 51°17.517 2°44.347 6.9 218 0.1 101810 81
2002-12-12 08:44:49 51°17.518 2°44.348 6.8 211 0.1 101810 81
2002-12-12 08:44:54 51°17.519 2°44.348 6.1 208 0.1 101810 81
2002-12-12 08:44:59 51°17.519 2°44.349 6.5 214 0.1 101810 81
2002-12-12 08:45:04 51°17.52 2°44.35 6.6 210 0.1 101810 81
2002-12-12 08:45:09 51°17.52 2°44.35 6.4 214 0.1 101810 81
2002-12-12 08:45:13 51°17.521 2°44.351 6.5 212 0.1 101810 81
2002-12-12 08:45:19 51°17.522 2°44.351 6.4 202 0.1 101810 80
2002-12-12 08:45:24 51°17.522 2°44.352 6.3 208 0.1 101810 80
2002-12-12 08:45:29 51°17.523 2°44.352 6.7 206 0.1 101800 80
2002-12-12 08:45:34 51°17.523 2°44.353 7 203 0.1 101800 80
2002-12-12 08:45:38 51°17.524 2°44.353 6.3 204 0.1 101800 80
2002-12-12 08:45:43 51°17.524 2°44.353 6.2 207 0.1 101800 80
2002-12-12 08:45:49 51°17.525 2°44.353 6 201   101800 80
2002-12-12 08:45:54 51°17.526 2°44.353 6.1 203   101800 80
2002-12-12 08:45:57 51°17.527 2°44.354 5.9 207 0.1 101810 80
2002-12-12 08:46:04 51°17.528 2°44.354 5.6 194 0.1 101810 80
2002-12-12 08:46:09 51°17.529 2°44.354 5.6 196 0.1 101800 80
2002-12-12 08:46:14 51°17.53 2°44.355 4.8 196 0.1 101800 80
2002-12-12 08:46:19 51°17.531 2°44.355 5.2 198 0.1 101810 80
2002-12-12 08:46:24 51°17.532 2°44.355 4.8 195 0.1 101810 80
2002-12-12 08:46:29 51°17.533 2°44.355 6 197 0.1 101800 80
2002-12-12 08:46:33 51°17.534 2°44.355 6.7 193 0.1 101800 80
2002-12-12 08:46:39 51°17.535 2°44.355 5.8 190 0.1 101810 80
2002-12-12 08:46:44 51°17.536 2°44.355 6.2 189 0.1 101810 80
2002-12-12 08:46:49 51°17.537 2°44.355 6.1 191 0.1 101800 80
2002-12-12 08:46:53 51°17.538 2°44.355 5.3 189 0.1 101800 80
2002-12-12 08:46:59 51°17.538 2°44.355 5.2 186 0.1 101810 80
2002-12-12 08:47:01 51°17.539 2°44.354 5 188 0.1 101810 80
2002-12-12 08:47:09 51°17.541 2°44.354 5 194 0.2 101800 81
2002-12-12 08:47:14 51°17.541 2°44.354 5.8 188 0.2 101800 81
2002-12-12 08:47:18 51°17.542 2°44.354 6.1 195 0.2 101810 81
2002-12-12 08:47:24 51°17.544 2°44.354 6.1 185 0.2 101810 81
2002-12-12 08:47:29 51°17.544 2°44.353 5.5 181 0.1 101810 80
2002-12-12 08:47:34 51°17.545 2°44.353 7.4 173 0.1 101810 80
2002-12-12 08:47:38 51°17.546 2°44.353 6 165 0.2 101810 80
2002-12-12 08:47:44 51°17.547 2°44.353 6 174 0.2 101810 80
2002-12-12 08:47:49 51°17.548 2°44.352 5.6 170 0.2 101810 80
2002-12-12 08:47:54 51°17.549 2°44.352 7.4 160 0.2 101810 80
2002-12-12 08:47:59 51°17.55 2°44.352 7.3 164 0.2 101800 81
2002-12-12 08:48:04 51°17.551 2°44.351 8.1 157 0.2 101800 81
2002-12-12 08:48:09 51°17.552 2°44.351 6.7 149 0.2 101800 81
2002-12-12 08:48:14 51°17.553 2°44.35 6.6 163 0.2 101800 81
2002-12-12 08:48:17 51°17.554 2°44.35 4.8 160 0.3 101800 82
2002-12-12 08:48:24 51°17.555 2°44.35 3.9 169 0.3 101800 82
2002-12-12 08:48:29 51°17.557 2°44.35 5.3 169 0.3 101800 82
2002-12-12 08:48:34 51°17.558 2°44.349 5.5 156 0.3 101800 82
2002-12-12 08:48:39 51°17.559 2°44.35 5.4 157 0.3 101810 81
2002-12-12 08:48:44 51°17.56 2°44.35 5.1 158 0.3 101810 81
2002-12-12 08:48:46 51°17.56 2°44.35 6.2 160 0.2 101800 80
2002-12-12 08:48:53 51°17.562 2°44.35 7.2 167 0.2 101800 80
2002-12-12 08:48:59 51°17.563 2°44.35 6.7 167 0.2 101810 80
2002-12-12 08:49:04 51°17.564 2°44.351 6.6 165 0.2 101810 80
2002-12-12 08:49:09 51°17.565 2°44.351 6.8 168 0.2 101810 80
2002-12-12 08:49:13 51°17.567 2°44.351 6.5 170 0.2 101810 80
2002-12-12 08:49:19 51°17.568 2°44.352 6.4 163 0.2 101810 80
2002-12-12 08:49:23 51°17.569 2°44.352 6.3 169 0.2 101810 80
2002-12-12 08:49:29 51°17.57 2°44.352 6.6 178 0.2 101800 80
2002-12-12 08:49:33 51°17.571 2°44.352 7.7 173 0.2 101800 80
2002-12-12 08:49:38 51°17.573 2°44.353 6.4 176 0.2 101800 80
2002-12-12 08:49:43 51°17.574 2°44.354 6.5 167 0.2 101800 80
2002-12-12 08:49:49 51°17.576 2°44.354 6.7 170 0.2 101810 80
2002-12-12 08:49:54 51°17.577 2°44.355 6.6 172 0.2 101810 80
2002-12-12 08:49:59 51°17.578 2°44.355 6.4 167 0.2 101800 80
2002-12-12 08:50:04 51°17.579 2°44.355 6.9 166 0.2 101800 80
2002-12-12 08:50:09 51°17.58 2°44.356 5.8 163 0.2 101800 80
2002-12-12 08:50:13 51°17.581 2°44.356 6.4 158 0.2 101800 80
2002-12-12 08:50:18 51°17.583 2°44.356 6.7 147 0.2 101810 80
2002-12-12 08:50:24 51°17.584 2°44.357 5.9 157 0.2 101810 80
2002-12-12 08:50:29 51°17.585 2°44.357 7.4 158 0.2 101810 80
2002-12-12 08:50:34 51°17.586 2°44.357 7.5 153 0.2 101810 80
2002-12-12 08:50:39 51°17.588 2°44.358 7.8 150 0.2 101800 81
2002-12-12 08:50:44 51°17.589 2°44.358 7 149 0.2 101800 81
2002-12-12 08:50:49 51°17.59 2°44.358 7 151 0.3 101800 81
2002-12-12 08:50:54 51°17.591 2°44.358 7.6 149 0.3 101800 81
2002-12-12 08:50:59 51°17.592 2°44.358 6.7 150 0.3 101800 81
2002-12-12 08:51:04 51°17.594 2°44.359 7.2 141 0.3 101800 81
2002-12-12 08:51:09 51°17.595 2°44.359 7.2 142 0.3 101810 81
2002-12-12 08:51:14 51°17.596 2°44.359 6.5 143 0.3 101810 81
2002-12-12 08:51:18 51°17.597 2°44.36 6.4 140 0.3 101800 81
2002-12-12 08:51:23 51°17.598 2°44.36 7.1 128 0.3 101800 81
2002-12-12 08:51:29 51°17.599 2°44.36 7.2 136 0.3 101800 80
2002-12-12 08:51:33 51°17.601 2°44.36 6.9 130 0.3 101800 80
2002-12-12 08:51:39 51°17.602 2°44.361 6.6 134 0.3 101820 80
2002-12-12 08:51:43 51°17.603 2°44.361 6.9 135 0.3 101820 80
2002-12-12 08:51:49 51°17.605 2°44.361 6.6 130 0.3 101800 81
2002-12-12 08:51:54 51°17.606 2°44.361 6.8 129 0.3 101800 81
2002-12-12 08:51:59 51°17.607 2°44.361 6.8 129 0.2 101800 80
2002-12-12 08:52:04 51°17.609 2°44.361 6.7 134 0.2 101800 80
2002-12-12 08:52:09 51°17.611 2°44.362 6 128 0.2 101820 80
2002-12-12 08:52:14 51°17.613 2°44.363 6.4 123 0.2 101820 80
2002-12-12 08:52:19 51°17.616 2°44.365 6.4 125 0.2 101810 80
2002-12-12 08:52:23 51°17.619 2°44.366 6.6 119 0.2 101810 80
2002-12-12 08:52:29 51°17.622 2°44.368 6.5 114 0.3 101810 81
2002-12-12 08:52:33 51°17.625 2°44.369 5.8 106 0.3 101810 81
2002-12-12 08:52:37 51°17.628 2°44.37 6.3 100 0.2 101810 81
2002-12-12 08:52:43 51°17.632 2°44.371 6.1 100 0.2 101810 81
2002-12-12 08:52:49 51°17.637 2°44.372 6.5 111 0.2 101810 80
2002-12-12 08:52:53 51°17.64 2°44.372 5.3 108 0.2 101810 80
2002-12-12 08:52:59 51°17.645 2°44.371 5.4 95 0.2 101810 80
2002-12-12 08:53:04 51°17.649 2°44.369 5.1 89 0.2 101810 80
2002-12-12 08:53:09 51°17.653 2°44.367 5.2 90 0.2 101820 80
2002-12-12 08:53:14 51°17.657 2°44.364 4.8 83 0.2 101820 80
2002-12-12 08:53:18 51°17.66 2°44.362 4.5 70 0.2 101810 80
2002-12-12 08:53:23 51°17.664 2°44.359 4.3 64 0.2 101810 80
2002-12-12 08:53:29 51°17.668 2°44.355 4.4 60 0.2 101830 80
2002-12-12 08:53:34 51°17.671 2°44.35 4.8 316 0.2 101830 80
2002-12-12 08:53:39 51°17.673 2°44.346 6.1 43 0.2 101810 80
2002-12-12 08:53:43 51°17.675 2°44.342 6.8 32 0.2 101810 80
2002-12-12 08:53:49 51°17.678 2°44.337 7.2 26 0.2 101830 80
2002-12-12 08:53:53 51°17.68 2°44.333 6.6 25 0.2 101830 80
2002-12-12 08:53:59 51°17.682 2°44.328 6.4 9 0.2 101820 80
2002-12-12 08:54:03 51°17.684 2°44.324 6.5 11 0.2 101820 80
2002-12-12 08:54:09 51°17.686 2°44.319 5.9 17 0.2 101820 80
2002-12-12 08:54:14 51°17.688 2°44.314 6.3 20 0.2 101820 80
2002-12-12 08:54:19 51°17.69 2°44.31 6.2 13 0.2 101830 80
2002-12-12 08:54:24 51°17.692 2°44.304 6.4 16 0.2 101830 80
2002-12-12 08:54:29 51°17.694 2°44.298 6.7 20 0.2 101820 80
2002-12-12 08:54:33 51°17.696 2°44.292 5.8 30 0.2 101820 80
2002-12-12 08:54:39 51°17.7 2°44.286 5.9 31 0.2 101820 80
2002-12-12 08:54:44 51°17.704 2°44.281 4.9 37 0.2 101820 80
2002-12-12 08:54:49 51°17.707 2°44.277 4.7 39 0.2 101830 80
2002-12-12 08:54:54 51°17.71 2°44.274 4.4 318 0.2 101830 80
2002-12-12 08:54:59 51°17.713 2°44.272 4.9 52 0.2 101830 80
2002-12-12 08:55:04 51°17.715 2°44.27 5.1 59 0.2 101830 80
2002-12-12 08:55:09 51°17.717 2°44.269 6.2 68 0.2 101830 80
2002-12-12 08:55:13 51°17.718 2°44.268 5.7 72 0.2 101830 80
2002-12-12 08:55:19 51°17.719 2°44.268 5.6 73 0.2 101830 80
2002-12-12 08:55:24 51°17.72 2°44.268 6.5 87 0.2 101830 80
2002-12-12 08:55:29 51°17.722 2°44.267 5.9 91 0.3 101820 81
2002-12-12 08:55:34 51°17.723 2°44.267 6 91 0.3 101820 81
2002-12-12 08:55:39 51°17.724 2°44.266 6.6 85 0.3 101810 81
2002-12-12 08:55:44 51°17.726 2°44.266 5.9 96 0.3 101810 81
2002-12-12 08:55:49 51°17.727 2°44.266 5.8 89 0.3 101820 81
2002-12-12 08:55:54 51°17.729 2°44.266 7 96 0.3 101820 81
2002-12-12 08:55:59 51°17.73 2°44.266 5.2 93 0.3 101810 81
2002-12-12 08:56:03 51°17.732 2°44.265 6.5 97 0.3 101810 81
2002-12-12 08:56:09 51°17.734 2°44.265 6.6 105 0.3 101810 81
2002-12-12 08:56:14 51°17.736 2°44.265 5.7 102 0.3 101810 81
2002-12-12 08:56:19 51°17.738 2°44.265 6.8 103 0.3 101790 81
2002-12-12 08:56:24 51°17.739 2°44.265 7 111 0.3 101790 81